Weather in Tatarskoye Utyashkino

Russia / Republic of Tatarstan     55°12′34″N   51°20′04″E
temp.,
°C
wind,
m/s
gust,
m/s
humid.,
%
clouds,
%
prec.,
mm/h
press.,
hPa
HPBL,
m
17 may, mon
mon1700:00+18s395860 0.0 1017133
03:00+17s38597 0.0 1017127
06:00+20sw27565 0.0 1017224
09:00+25ssw574550 0.1 1017487
12:00+30sw68335 0.0 10171508
15:00+31wsw57295 0.0 10172364
18:00+27wsw12504 0.0 101626
21:00+22s11575 0.0 101711
18 may, tue
tue1800:00+19nnw22645 0.0 101711
03:00+18ene238211 0.0 101845
06:00+20ene46731 0.0 1018229
09:00+25ene44555 0.0 1018652
12:00+27ene444610 0.0 10181170
15:00+27ne54444 0.0 10181211
18:00+24ne59545 0.0 1018339
21:00+19ene4106151 0.0 1019204
19 may, wed
wed1900:00+17e411645 0.0 1019222
03:00+14e4117621 0.0 1020229
06:00+16e611701 0.0 1021375
09:00+21e69530 0.0 1021857
12:00+24ese68410 0.0 10201287
15:00+25ese67380 0.0 10191541
18:00+22e59530 0.0 1019343
21:00+18e513580 0.0 1020252
20 may, thu
thu2000:00+15ese410625 0.0 1020171
03:00+14se3116712 0.0 1021228
06:00+17se4106028 0.0 1021371
09:00+21se684281 0.0 10211054
12:00+24se6735100 0.0 10201780
15:00+24sse6734100 0.0 10192050
18:00+21se36510 0.0 1019159
21:00+16ese33595 0.0 101931
21 may, fri
fri2100:00+15se335963 0.0 101938
03:00+14ese2257100 0.0 101926
06:00+17se37567 0.0 1019217
09:00+22se454232 0.0 1018833
12:00+24sse573263 0.0 10183082
15:00+24ssw463620 0.0 10172100
18:00+21sse225231 0.0 101766
21:00+17sse33605 0.0 101732